GW4575 Weather Reports


time (UTC)temp
F
wind
direction
speed
knots
gust
knots
rain 1hr
in
rain 24hr
in
rain mn
in
humidity
%
barometer
mb
20260905095724 60 189 0.0 0.9 0.00 0.00 0.00 99 1021.4
20260905095223 60 177 1.7 1.7 0.00 0.00 0.00 99 1021.4
20260905094718 60 200 0.0 0.9 0.00 0.00 0.00 99 1021.5
20260905094213 60 149 0.9 1.7 0.00 0.00 0.00 99 1021.5
20260905093713 60 173 1.7 2.6 0.00 0.00 0.00 99 1021.3
20260905093209 60 112 0.9 1.7 0.00 0.00 0.00 99 1021.4
20260905092704 60 130 0.9 2.6 0.00 0.00 0.00 99 1021.3
20260905092200 60 108 0.0 1.7 0.00 0.00 0.00 99 1021.4
20260905091659 60 118 0.9 1.7 0.00 0.00 0.00 99 1021.2
20260905091200 60 113 0.9 2.6 0.00 0.00 0.00 99 1021.2
20260905090659 60 162 0.9 1.7 0.00 0.00 0.00 99 1021.3
20260905090155 60 145 1.7 2.6 0.00 0.00 0.00 99 1021.0
20260905085653 59 154 1.7 2.6 0.00 0.00 0.00 99 1021.2
20260905085149 60 146 1.7 3.5 0.00 0.00 0.00 99 1021.2
20260905084648 60 173 2.6 3.5 0.00 0.00 0.00 98 1021.1
20260905084143 60 162 1.7 2.6 0.00 0.00 0.00 98 1021.2
20260905083638 60 123 2.6 3.5 0.00 0.00 0.00 97 1021.0
20260905083135 60 110 1.7 5.2 0.00 0.00 0.00 97 1021.2
20260905082630 60 129 0.9 3.5 0.00 0.00 0.00 96 1021.4
20260905082125 60 143 1.7 6.1 0.00 0.00 0.00 95 1021.1
20260905081619 60 150 1.7 2.6 0.00 0.00 0.00 95 1021.4
20260905081114 60 158 1.7 1.7 0.00 0.00 0.00 94 1021.3
20260905080614 61 89 2.6 5.2 0.00 0.00 0.00 94 1021.2
20260905080109 60 119 2.6 3.5 0.00 0.00 0.00 93 1021.3
20260905075608 60 67 1.7 2.6 0.00 0.00 0.00 94 1021.1
20260905075108 60 100 1.7 2.6 0.00 0.00 0.00 94 1021.1
20260905074607 60 127 1.7 3.5 0.00 0.00 0.00 95 1021.1
20260905074103 60 124 0.9 1.7 0.00 0.00 0.00 95 1021.2
20260905073558 60 144 0.9 2.6 0.00 0.00 0.00 94 1021.3
20260905073054 60 158 0.9 1.7 0.00 0.00 0.00 93 1021.2
20260905072553 61 164 0.9 2.6 0.00 0.00 0.00 93 1021.2
20260905072048 61 166 0.0 0.9 0.00 0.00 0.00 92 1021.2
20260905071545 61 115 0.9 2.6 0.00 0.00 0.00 92 1021.2
20260905071040 61 184 0.9 1.7 0.00 0.00 0.00 91 1021.2
20260905070535 61 99 1.7 5.2 0.00 0.00 0.00 91 1021.0
20260905070031 61 185 0.9 2.6 0.00 0.00 0.00 92 1021.1
20260905065529 62 154 1.7 2.6 0.00 0.00 0.00 91 1020.9
20260905065024 62 115 1.7 2.6 0.00 0.00 0.00 90 1021.1
20260905064519 61 144 0.9 1.7 0.00 0.00 0.00 90 1020.9
20260905064014 62 169 0.9 2.6 0.00 0.00 0.00 90 1021.0
20260905063513 62 108 1.7 3.5 0.00 0.00 0.00 90 1020.9
20260905063010 62 173 1.7 5.2 0.00 0.00 0.00 90 1021.0
20260905062509 62 148 0.9 2.6 0.00 0.00 0.00 90 1021.0
20260905062004 62 199 1.7 5.2 0.00 0.00 0.00 90 1021.1
20260905061459 62 156 2.6 5.2 0.00 0.00 0.00 90 1021.0
20260905060958 62 158 2.6 3.5 0.00 0.00 0.00 89 1021.0
20260905060454 62 94 1.7 3.5 0.00 0.00 0.00 89 1021.0
20260905055949 62 105 1.7 2.6 0.00 0.00 0.00 89 1021.1
20260905055448 62 130 1.7 5.2 0.00 0.00 0.00 88 1021.0
20260905054943 62 117 1.7 3.5 0.00 0.00 0.00 89 1021.0
20260905054439 62 139 1.7 2.6 0.00 0.00 0.00 89 1021.2
20260905053938 62 112 1.7 1.7 0.00 0.00 0.00 90 1021.0
20260905053433 62 139 1.7 1.7 0.00 0.00 0.00 90 1021.2
20260905052929 62 92 1.7 3.5 0.00 0.00 0.00 90 1021.2
20260905052428 62 172 0.9 2.6 0.00 0.00 0.00 91 1021.1
20260905051928 61 143 0.9 2.6 0.00 0.00 0.00 92 1021.0
20260905051418 61 187 0.9 1.7 0.00 0.00 0.00 93 1021.1
20260905050915 61 146 1.7 1.7 0.00 0.00 0.00 93 1021.0
20260905050411 61 159 0.9 1.7 0.00 0.00 0.00 94 1020.9
20260905045906 61 146 0.9 1.7 0.00 0.00 0.00 94 1021.2
20260905045401 61 112 0.0 0.9 0.00 0.00 0.00 94 1021.0
20260905044856 61 182 0.0 1.7 0.00 0.00 0.00 95 1021.1
20260905044351 61 181 0.9 0.9 0.00 0.00 0.00 96 1021.1
20260905043845 61 182 0.0 0.0 0.00 0.00 0.00 95 1021.3
20260905043339 61 183 0.0 0.0 0.00 0.00 0.00 94 1021.0
20260905042834 61 175 0.0 0.9 0.00 0.00 0.00 94 1021.2
20260905042334 62 123 1.7 1.7 0.00 0.00 0.00 94 1020.9
20260905041829 62 174 0.0 0.0 0.00 0.00 0.00 93 1021.1
20260905041325 62 195 0.0 0.0 0.00 0.00 0.00 93 1021.1
20260905040820 62 189 0.0 1.7 0.00 0.00 0.00 92 1020.9
20260905040319 62 127 1.7 2.6 0.00 0.00 0.00 92 1021.1
20260905035818 62 192 0.9 1.7 0.00 0.55 0.55 92 1020.9
20260905035314 62 168 0.9 2.6 0.00 0.55 0.55 92 1020.9
20260905034811 62 24 0.9 1.7 0.00 0.55 0.55 94 1021.1
20260905034306 62 164 0.9 1.7 0.00 0.55 0.55 94 1021.0
20260905033804 62 193 0.0 2.6 0.00 0.55 0.55 94 1020.7
20260905033300 62 118 1.7 3.5 0.00 0.55 0.55 95 1020.8
20260905032759 62 153 0.9 5.2 0.00 0.55 0.55 95 1021.0
20260905032255 62 171 0.9 2.6 0.00 0.55 0.55 96 1020.6
20260905031750 62 88 2.6 5.2 0.00 0.55 0.55 97 1020.9
20260905031246 62 121 2.6 6.1 0.00 0.55 0.55 97 1020.8
20260905030740 62 121 2.6 7.0 0.00 0.55 0.55 97 1020.9
20260905030236 62 129 0.9 2.6 0.00 0.55 0.55 97 1020.6
20260905025730 62 77 0.9 5.2 0.00 0.55 0.55 97 1020.6
20260905025226 62 111 0.9 2.6 0.00 0.55 0.55 97 1020.7
20260905024721 62 96 4.3 5.2 0.00 0.55 0.55 98 1020.8
20260905024218 62 124 3.5 3.5 0.00 0.55 0.55 98 1020.5
20260905023712 62 152 0.9 2.6 0.00 0.55 0.55 98 1020.7
20260905023212 62 130 1.7 2.6 0.00 0.55 0.55 99 1020.7
20260905022711 62 128 0.9 5.2 0.00 0.55 0.55 99 1020.8
20260905022207 62 142 0.9 1.7 0.00 0.55 0.55 98 1020.7
20260905021707 62 79 1.7 1.7 0.00 0.55 0.55 98 1020.7
20260905021202 62 122 1.7 3.5 0.00 0.55 0.55 98 1020.9
20260905020656 62 150 0.9 2.6 0.00 0.55 0.55 98 1020.7
20260905020146 62 111 2.6 3.5 0.00 0.55 0.55 97 1020.6
20260905015644 63 167 1.7 2.6 0.00 0.55 0.55 97 1020.7
20260905015139 63 137 0.9 5.2 0.00 0.55 0.55 96 1020.5
20260905014632 63 77 0.9 2.6 0.00 0.55 0.55 95 1020.4
20260905014128 63 154 3.5 5.2 0.00 0.55 0.55 94 1020.3
20260905013625 63 115 2.6 9.6 0.00 0.55 0.55 95 1020.4
20260905013120 63 178 1.7 3.5 0.00 0.55 0.55 96 1020.3
20260905012620 63 160 1.7 7.0 0.00 0.55 0.55 97 1020.2
20260905012117 63 136 2.6 5.2 0.00 0.55 0.55 97 1020.3
20260905011612 63 162 1.7 3.5 0.00 0.55 0.55 98 1020.1
20260905011108 63 78 4.3 5.2 0.00 0.55 0.55 98 1020.1
20260905010608 63 117 2.6 7.8 0.00 0.55 0.55 98 1020.2
20260905010104 63 126 1.7 5.2 0.00 0.55 0.55 97 1020.1
20260905005559 63 120 1.7 5.2 0.00 0.55 0.55 97 1020.0
20260905005055 63 135 2.6 6.1 0.00 0.55 0.55 96 1020.0
20260905004549 63 138 2.6 3.5 0.00 0.55 0.55 96 1019.9
20260905004044 63 195 1.7 6.1 0.00 0.55 0.55 95 1019.7
20260905003540 63 168 1.7 5.2 0.00 0.55 0.55 95 1019.8
20260905003037 64 190 1.7 3.5 0.00 0.55 0.55 95 1019.7
20260905002532 64 87 5.2 6.1 0.00 0.55 0.55 94 1019.6
20260905002031 64 154 1.7 2.6 0.00 0.55 0.55 95 1019.6
20260905001526 64 126 0.9 5.2 0.00 0.55 0.55 95 1019.8
20260905001020 64 137 3.5 5.2 0.00 0.55 0.55 94 1019.8
20260905000516 65 88 5.2 7.0 0.00 0.55 0.55 93 1019.9
20260905000012 65 147 2.6 6.1 0.00 0.55 0.55 92 1019.8
20260904235507 65 174 3.5 6.1 0.00 0.55 0.55 91 1019.8
20260904235000 65 61 1.7 8.7 0.00 0.55 0.55 90 1019.7
20260904234455 65 184 2.6 7.0 0.00 0.55 0.55 89 1019.8
20260904233951 65 187 3.5 6.1 0.00 0.55 0.55 89 1019.6
20260904233446 65 104 2.6 7.0 0.00 0.55 0.55 89 1019.9
20260904232942 66 135 2.6 6.1 0.00 0.55 0.55 88 1019.7
20260904232438 66 150 1.7 3.5 0.00 0.55 0.55 88 1019.8
20260904231935 66 126 3.5 6.1 0.00 0.55 0.55 87 1019.6
20260904231429 66 88 2.6 7.0 0.00 0.55 0.55 87 1019.8
20260904230925 66 214 3.5 7.0 0.00 0.55 0.55 87 1019.7
20260904230424 67 183 3.5 11.3 0.00 0.55 0.55 86 1019.6
20260904225919 67 112 2.6 7.8 0.00 0.55 0.55 86 1019.7
20260904225417 67 173 4.3 6.1 0.00 0.55 0.55 85 1019.6
20260904224916 67 114 1.7 5.2 0.00 0.55 0.55 86 1019.7
20260904224412 66 178 3.5 7.0 0.00 0.55 0.55 87 1019.6
20260904223907 67 105 5.2 7.8 0.00 0.55 0.55 85 1019.6
20260904223406 67 102 2.6 6.1 0.00 0.55 0.55 86 1019.4
20260904222903 67 111 4.3 8.7 0.00 0.55 0.55 85 1019.3
20260904222402 67 193 3.5 7.8 0.00 0.55 0.55 85 1019.4
20260904221902 67 108 3.5 13.9 0.00 0.55 0.55 85 1019.4
20260904221357 68 75 2.6 6.1 0.00 0.55 0.55 84 1019.4
20260904220852 68 111 4.3 7.8 0.00 0.55 0.55 84 1019.4
20260904220351 68 173 2.6 5.2 0.00 0.55 0.55 84 1019.1
20260904215847 68 32 3.5 7.0 0.00 0.55 0.55 85 1019.3
20260904215342 68 109 6.1 9.6 0.00 0.55 0.55 85 1019.4
20260904214838 68 108 1.7 6.1 0.00 0.55 0.55 86 1019.2
20260904214333 68 85 3.5 7.8 0.00 0.55 0.55 86 1019.2
20260904213832 67 198 2.6 5.2 0.00 0.55 0.55 88 1019.2
20260904213327 67 138 7.0 8.7 0.00 0.55 0.55 88 1019.3
20260904212823 67 58 3.5 6.1 0.00 0.55 0.55 89 1019.0
20260904212317 67 101 5.2 7.8 0.00 0.55 0.55 90 1019.1
20260904211812 67 134 2.6 7.0 0.00 0.55 0.55 91 1019.3
20260904211307 67 199 2.6 6.1 0.00 0.55 0.55 91 1019.2
20260904210802 66 162 2.6 6.1 0.00 0.55 0.55 91 1019.1
20260904210301 66 167 3.5 6.1 0.00 0.55 0.55 91 1019.3
20260904205758 66 166 3.5 7.0 0.00 0.55 0.55 91 1019.3
20260904205254 66 199 4.3 7.8 0.00 0.55 0.55 91 1019.2
20260904204750 66 178 3.5 7.0 0.00 0.55 0.55 91 1019.3
20260904204246 66 204 3.5 5.2 0.00 0.55 0.55 91 1019.4
20260904203742 67 188 0.9 7.0 0.00 0.55 0.55 91 1019.2
20260904203238 66 145 5.2 8.7 0.00 0.55 0.55 90 1019.4
20260904202734 67 159 5.2 7.0 0.00 0.55 0.55 89 1019.2
20260904202230 67 143 1.7 2.6 0.00 0.55 0.55 90 1019.2
20260904201725 67 125 1.7 3.5 0.00 0.55 0.55 89 1019.1
20260904201225 67 121 5.2 7.8 0.00 0.55 0.55 89 1019.1
20260904200720 67 151 3.5 3.5 0.00 0.55 0.55 89 1019.1
20260904200215 67 127 6.1 9.6 0.00 0.55 0.55 88 1019.0
20260904195714 67 90 3.5 6.1 0.00 0.55 0.55 89 1018.9
20260904195212 67 106 3.5 5.2 0.00 0.55 0.55 88 1019.0
20260904194708 67 143 3.5 7.8 0.00 0.55 0.55 88 1018.9
20260904194201 67 213 5.2 7.8 0.00 0.55 0.55 89 1019.0
20260904193657 67 144 4.3 9.6 0.00 0.55 0.55 90 1018.8
20260904193153 67 169 3.5 8.7 0.00 0.55 0.55 89 1018.9
20260904192653 67 147 4.3 7.0 0.00 0.55 0.55 90 1018.9
20260904192148 67 122 4.3 6.1 0.00 0.55 0.55 90 1018.8
20260904191645 66 78 3.5 5.2 0.00 0.55 0.55 90 1018.8
20260904191141 66 144 4.3 7.0 0.00 0.55 0.55 91 1018.9
20260904190637 66 150 6.1 8.7 0.00 0.55 0.55 90 1019.0
20260904190133 66 101 3.5 6.1 0.00 0.55 0.55 90 1019.0
20260904185630 67 85 1.7 2.6 0.00 0.55 0.55 91 1019.0
20260904185129 66 96 1.7 5.2 0.00 0.55 0.55 91 1018.9
20260904184628 66 152 3.5 8.7 0.00 0.55 0.55 92 1019.1
20260904184124 66 203 1.7 5.2 0.00 0.55 0.55 92 1019.1
20260904183620 66 52 2.6 5.2 0.00 0.55 0.55 92 1019.1
20260904183114 66 183 2.6 3.5 0.00 0.55 0.55 92 1019.0
20260904182609 66 120 2.6 3.5 0.00 0.55 0.55 93 1019.0
20260904182104 66 72 5.2 8.7 0.00 0.55 0.55 92 1019.0
20260904181601 67 83 4.3 6.1 0.00 0.55 0.55 91 1019.0
20260904181100 67 178 4.3 9.6 0.00 0.55 0.55 90 1019.0
20260904180554 67 15 1.7 6.1 0.00 0.55 0.55 90 1018.8
20260904180049 67 53 7.8 13.0 0.00 0.55 0.55 91 1018.9
20260904175543 67 9 1.7 8.7 0.00 0.55 0.55 90 1018.7
20260904175042 67 99 4.3 6.1 0.00 0.55 0.55 90 1018.5
20260904174537 67 68 3.5 11.3 0.00 0.55 0.55 91 1018.4
20260904174034 66 174 3.5 6.1 0.00 0.55 0.55 92 1018.4
20260904173533 66 112 6.1 7.8 0.00 0.55 0.55 91 1018.4
20260904173029 66 106 6.1 11.3 0.00 0.55 0.55 91 1018.6
20260904172525 66 159 3.5 11.3 0.00 0.55 0.55 92 1018.5
20260904172024 66 117 2.6 7.0 0.00 0.55 0.55 92 1018.5
20260904171519 67 81 4.3 7.0 0.00 0.55 0.55 91 1018.6
20260904171015 67 192 2.6 8.7 0.00 0.55 0.55 92 1018.4
20260904170510 66 130 4.3 13.0 0.00 0.55 0.55 92 1018.4
20260904170007 66 68 7.0 9.6 0.00 0.55 0.55 93 1018.4
20260904165505 66 80 3.5 6.1 0.00 0.55 0.55 93 1018.1
20260904165005 66 130 5.2 9.6 0.00 0.55 0.55 92 1018.5
20260904164500 66 178 3.5 9.6 0.00 0.55 0.55 93 1018.4
20260904163956 66 50 4.3 7.8 0.00 0.55 0.55 93 1018.4
20260904163450 65 146 6.1 8.7 0.00 0.55 0.55 94 1018.6
20260904162949 66 114 6.1 8.7 0.00 0.55 0.55 94 1018.5
20260904162444 66 188 2.6 7.8 0.00 0.55 0.55 93 1018.6
20260904161934 66 167 4.3 12.2 0.00 0.55 0.55 93 1018.4
20260904161430 66 48 6.1 8.7 0.00 0.55 0.55 92 1018.6
20260904160925 68 97 4.3 7.0 0.00 0.55 0.55 90 1018.3
20260904160420 67 222 3.5 6.1 0.00 0.55 0.55 91 1018.5
20260904155915 66 88 3.5 6.1 0.00 0.55 0.55 92 1018.3
20260904155410 66 89 2.6 7.0 0.00 0.55 0.55 94 1018.4
20260904154909 65 109 2.6 6.1 0.00 0.55 0.55 94 1018.1
20260904154403 65 157 5.2 7.8 0.00 0.55 0.55 94 1018.4
20260904153859 65 178 3.5 8.7 0.00 0.55 0.55 95 1018.4
20260904153354 65 125 4.3 6.1 0.00 0.55 0.55 95 1018.4
20260904152850 64 74 3.5 7.8 0.00 0.55 0.55 96 1018.3
20260904152349 64 169 3.5 5.2 0.00 0.55 0.55 96 1018.4
20260904151844 65 150 3.5 8.7 0.00 0.55 0.55 96 1018.4
20260904151343 65 79 5.2 8.7 0.00 0.55 0.55 95 1018.5
20260904150839 64 147 5.2 6.1 0.00 0.55 0.55 97 1018.3
20260904150334 64 171 6.1 7.8 0.00 0.55 0.55 97 1018.3
20260904145832 64 132 5.2 7.8 0.00 0.55 0.55 98 1018.3
20260904145329 64 67 4.3 9.6 0.00 0.55 0.55 98 1018.4
20260904144824 64 168 2.6 7.0 0.00 0.55 0.55 98 1018.3
20260904144320 64 134 3.5 7.0 0.00 0.55 0.55 98 1018.1
20260904143815 64 114 2.6 6.1 0.00 0.55 0.55 98 1018.3
20260904143312 64 152 3.5 7.8 0.00 0.55 0.55 99 1018.3
20260904142808 64 18 3.5 6.1 0.00 0.55 0.55 99 1018.1
20260904142306 64 102 3.5 7.0 0.00 0.55 0.55 99 1018.4
20260904141803 64 38 4.3 6.1 0.00 0.55 0.55 99 1018.1
20260904141259 63 121 3.5 7.0 0.00 0.55 0.55 99 1018.1
20260904140754 63 210 1.7 5.2 0.00 0.55 0.55 99 1018.1
20260904140250 63 107 2.6 6.1 0.00 0.55 0.55 99 1018.3
20260904135749 63 120 2.6 8.7 0.00 0.55 0.55 99 1018.1
20260904135244 64 91 2.6 7.0 0.00 0.55 0.55 99 1017.9
20260904134740 64 141 3.5 5.2 0.00 0.55 0.55 99 1017.9
20260904134234 64 105 3.5 5.2 0.00 0.55 0.55 99 1017.9
20260904133729 63 58 4.3 8.7 0.00 0.55 0.55 99 1017.8
20260904133225 63 120 4.3 6.1 0.00 0.55 0.55 99 1017.9
20260904132724 63 93 3.5 6.1 0.00 0.55 0.55 99 1018.0
20260904132219 63 242 3.5 7.0 0.00 0.55 0.55 99 1017.7
20260904131719 63 190 1.7 7.8 0.00 0.55 0.55 99 1017.7
20260904131215 63 140 4.3 6.1 0.00 0.55 0.55 99 1017.6
20260904130714 63 111 2.6 6.1 0.00 0.55 0.55 99 1017.5
20260904130213 62 115 5.2 8.7 0.00 0.55 0.55 99 1017.6
20260904125710 62 163 3.5 7.8 0.00 0.55 0.55 99 1017.5
20260904125205 62 78 4.3 7.0 0.00 0.55 0.55 99 1017.4
20260904124700 62 155 3.5 8.7 0.00 0.55 0.55 99 1017.7
20260904124156 62 213 4.3 7.0 0.00 0.55 0.55 99 1017.4
20260904123656 62 105 1.7 6.1 0.00 0.55 0.55 99 1017.4
20260904123152 62 97 4.3 6.1 0.00 0.55 0.55 99 1017.3
20260904122652 62 86 2.6 8.7 0.00 0.55 0.55 99 1017.0
20260904122147 62 157 2.6 6.1 0.00 0.55 0.55 99 1016.8
20260904121642 62 299 2.6 6.1 0.00 0.55 0.55 99 1016.5
20260904121138 62 170 2.6 8.7 0.00 0.55 0.55 99 1016.6
20260904120634 62 138 3.5 6.1 0.00 0.55 0.55 99 1017.0
20260904120130 62 160 2.6 6.1 0.00 0.55 0.55 99 1017.2
20260904115625 62 177 2.6 5.2 0.00 0.55 0.55 99 1017.3
20260904115120 62 204 0.9 2.6 0.00 0.55 0.55 99 1017.4
20260904114619 62 52 3.5 7.8 0.00 0.55 0.55 99 1017.4
20260904114114 62 102 2.6 6.1 0.00 0.55 0.55 99 1017.2
20260904113608 62 128 2.6 3.5 0.00 0.55 0.55 99 1017.5
20260904113107 62 143 2.6 3.5 0.00 0.55 0.55 99 1017.3
20260904112603 62 127 1.7 3.5 0.00 0.55 0.55 99 1017.6
20260904112059 62 145 1.7 3.5 0.00 0.55 0.55 99 1017.3
20260904111554 62 60 3.5 6.1 0.05 0.55 0.55 99 1017.4
20260904111050 62 158 0.9 3.5 0.05 0.55 0.55 99 1017.1
20260904110544 62 86 0.9 3.5 0.00 0.54 0.54 99 1017.1
20260904110040 62 132 3.5 5.2 0.00 0.54 0.54 99 1017.0
20260904105534 62 161 0.9 2.6 0.00 0.54 0.54 99 1016.9
20260904105029 62 164 1.7 5.2 0.24 0.54 0.54 99 1016.9
20260904104525 62 137 1.7 6.1 0.24 0.54 0.54 99 1017.2
20260904104020 62 175 2.6 2.6 0.07 0.50 0.50 99 1017.2
20260904103516 62 175 2.6 2.6 0.31 0.50 0.50 99 1017.5
20260904103012 62 189 1.7 2.6 0.31 0.49 0.49 99 1017.2
20260904102507 62 116 2.6 3.5 0.31 0.45 0.45 99 1017.0
20260904102003 62 210 0.0 0.0 0.12 0.42 0.42 99 1018.1
20260904101500 62 227 0.0 0.0 0.05 0.40 0.40 99 1017.7
20260904100955 62 156 0.0 1.7 0.00 0.39 0.39 99 1017.6
20260904100450 62 96 2.6 5.2 0.00 0.39 0.39 99 1017.1